Time,TemperatureF,DewpointF,PressureIn,WindDirection,WindDirectionDegrees,WindSpeedMPH,WindSpeedGustMPH,Humidity,HourlyPrecipIn,Conditions,Clouds,dailyrainin,SoftwareType,DateUTC
2013-09-09 00:14:00,39.0,37.0,30.14,East,95,0.0,0.0,94,0.00,,,0.01,,2013-09-09 04:14:00,
2013-09-09 00:24:00,39.0,37.0,30.14,East,95,0.0,0.0,94,0.00,,,0.09,,2013-09-09 04:24:00,
2013-09-09 00:54:00,38.0,37.0,30.14,East,95,0.0,0.0,95,0.00,,,0.09,,2013-09-09 04:54:00,
2013-09-09 01:13:00,38.0,37.0,30.13,East,95,0.0,0.0,95,0.00,,,0.09,,2013-09-09 05:13:00,
2013-09-09 01:23:00,38.0,37.0,30.14,East,95,0.0,0.0,95,0.00,,,-99.99,,2013-09-09 05:23:00,
2013-09-09 01:53:00,37.0,36.0,30.15,East,95,0.0,0.0,95,0.00,,,0.09,,2013-09-09 05:53:00,
2013-09-09 02:12:00,37.0,36.0,30.15,East,95,0.0,0.0,95,0.00,,,0.09,,2013-09-09 06:12:00,
2013-09-09 02:22:00,37.0,36.0,30.15,East,95,0.0,0.0,96,0.00,,,0.09,,2013-09-09 06:22:00,
2013-09-09 02:52:00,37.0,36.0,30.17,East,95,0.0,0.0,96,0.00,,,0.09,,2013-09-09 06:52:00,
2013-09-09 03:11:00,36.0,35.0,30.17,East,95,0.0,0.0,95,0.00,,,0.09,,2013-09-09 07:11:00,
2013-09-09 03:22:00,36.0,35.0,30.17,East,95,0.0,0.0,96,0.00,,,0.09,,2013-09-09 07:22:00,
2013-09-09 03:52:00,37.0,36.0,30.19,East,95,0.0,0.0,97,0.00,,,-99.99,,2013-09-09 07:52:00,
2013-09-09 04:12:00,37.0,36.0,30.19,East,95,0.0,0.0,96,0.00,,,-99.99,,2013-09-09 08:12:00,
2013-09-09 04:22:00,36.0,35.0,30.19,East,95,0.0,0.0,96,0.00,,,0.08,,2013-09-09 08:22:00,
2013-09-09 04:52:00,35.0,34.0,30.19,East,95,0.0,0.0,96,0.00,,,0.08,,2013-09-09 08:52:00,
2013-09-09 05:12:00,35.0,34.0,30.19,East,95,0.0,0.0,96,-99.99,,,0.08,,2013-09-09 09:12:00,
2013-09-09 05:22:00,35.0,34.0,30.19,East,95,0.0,0.0,96,0.00,,,0.05,,2013-09-09 09:22:00,
2013-09-09 05:53:00,35.0,34.0,30.20,East,95,0.0,0.0,96,0.00,,,0.01,,2013-09-09 09:53:00,
2013-09-09 06:12:00,35.0,34.0,30.20,East,95,0.0,0.0,96,0.00,,,0.01,,2013-09-09 10:12:00,
2013-09-09 06:23:00,35.0,34.0,30.21,East,95,0.0,0.0,97,0.00,,,0.00,,2013-09-09 10:23:00,
2013-09-09 06:52:00,35.0,34.0,30.21,East,95,0.0,0.0,97,0.00,,,0.00,,2013-09-09 10:52:00,
2013-09-09 07:12:00,35.0,34.0,30.21,East,95,0.0,0.0,97,0.00,,,0.01,,2013-09-09 11:12:00,
2013-09-09 07:22:00,36.0,35.0,30.22,East,95,0.0,0.0,97,0.00,,,0.01,,2013-09-09 11:22:00,
2013-09-09 07:52:00,37.0,36.0,30.22,ESE,109,0.0,0.0,97,0.00,,,0.01,,2013-09-09 11:52:00,
2013-09-09 08:12:00,39.0,38.0,30.22,ESE,109,1.0,1.0,97,0.00,,,0.01,,2013-09-09 12:12:00,
2013-09-09 08:22:00,41.0,40.0,30.22,ESE,109,0.0,0.0,98,0.00,,,0.01,,2013-09-09 12:22:00,
2013-09-09 08:52:00,43.0,42.0,30.22,SSE,157,0.0,2.0,98,0.00,,,0.01,,2013-09-09 12:52:00,
2013-09-09 09:11:00,45.0,44.0,30.22,SSE,157,0.0,1.0,97,0.00,,,0.01,,2013-09-09 13:11:00,
2013-09-09 09:22:00,47.0,45.0,30.22,SSE,167,1.0,4.0,91,0.00,,,0.01,,2013-09-09 13:22:00,
2013-09-09 09:52:00,51.0,46.0,30.21,South,173,2.0,4.0,83,0.00,,,0.01,,2013-09-09 13:52:00,
2013-09-09 10:12:00,51.0,46.0,30.21,South,169,1.0,2.0,82,0.00,,,0.01,,2013-09-09 14:12:00,
2013-09-09 10:22:00,54.0,46.0,30.21,SSW,198,0.0,2.0,73,0.00,,,0.01,,2013-09-09 14:22:00,
2013-09-09 10:52:00,57.0,44.0,30.21,West,267,0.0,1.0,62,0.00,,,0.01,,2013-09-09 14:52:00,
2013-09-09 11:11:00,58.0,44.0,30.21,WSW,258,0.0,0.0,59,0.00,,,0.01,,2013-09-09 15:11:00,
2013-09-09 11:22:00,58.0,44.0,30.21,West,274,1.0,5.0,59,0.00,,,-99.99,,2013-09-09 15:22:00,
2013-09-09 11:43:00,60.0,45.0,30.20,WNW,284,3.0,6.0,57,0.00,,,-99.99,,2013-09-09 15:43:00,
2013-09-09 11:53:00,61.0,46.0,30.20,NNE,22,2.0,6.0,57,0.00,,,-99.99,,2013-09-09 15:53:00,
2013-09-09 12:13:00,62.0,46.0,30.20,NW,306,2.0,3.0,56,0.00,,,-99.99,,2013-09-09 16:13:00,
2013-09-09 12:25:00,62.0,46.0,30.19,WNW,283,2.0,3.0,55,0.00,,,0.01,,2013-09-09 16:25:00,
2013-09-09 12:43:00,63.0,47.0,30.19,WNW,284,3.0,6.0,55,0.00,,,-99.99,,2013-09-09 16:43:00,
2013-09-09 12:54:00,64.0,45.0,30.18,NW,310,6.0,8.0,50,0.00,,,0.01,,2013-09-09 16:54:00,
2013-09-09 13:12:00,64.0,45.0,30.18,West,278,3.0,3.0,51,-99.99,,,0.01,,2013-09-09 17:12:00,
2013-09-09 13:53:00,66.0,45.0,30.18,West,277,2.0,3.0,46,-99.99,,,0.01,,2013-09-09 17:53:00,
2013-09-09 14:13:00,66.0,42.0,30.18,West,281,2.0,4.0,41,0.00,,,0.01,,2013-09-09 18:13:00,
2013-09-09 14:22:00,66.0,43.0,30.17,WSW,249,3.0,5.0,43,0.00,,,0.01,,2013-09-09 18:22:00,
2013-09-09 14:52:00,67.0,44.0,30.17,NW,311,4.0,8.0,43,0.00,,,0.01,,2013-09-09 18:52:00,
2013-09-09 15:12:00,68.0,43.0,30.16,NNW,343,1.0,2.0,41,0.00,,,-99.99,,2013-09-09 19:12:00,
2013-09-09 15:22:00,68.0,43.0,30.15,NW,310,0.0,0.0,41,0.00,,,0.01,,2013-09-09 19:22:00,
2013-09-09 16:12:00,69.0,43.0,30.13,WNW,294,3.0,4.0,39,0.00,,,0.01,,2013-09-09 20:12:00,
2013-09-09 16:22:00,68.0,44.0,30.12,SE,136,1.0,4.0,42,0.00,,,0.01,,2013-09-09 20:22:00,
2013-09-09 16:53:00,67.0,45.0,30.12,NW,304,0.0,0.0,45,0.00,,,0.01,,2013-09-09 20:53:00,
2013-09-09 17:22:00,66.0,47.0,30.10,NW,318,0.0,0.0,51,0.00,,,0.01,,2013-09-09 21:22:00,
2013-09-09 17:54:00,64.0,48.0,30.10,NW,309,0.0,0.0,56,0.00,,,0.01,,2013-09-09 21:54:00,
2013-09-09 18:43:00,61.0,50.0,30.09,NW,309,0.0,0.0,67,0.00,,,-99.99,,2013-09-09 22:43:00,
2013-09-09 19:22:00,60.0,47.0,30.09,West,267,0.0,1.0,63,0.00,,,0.01,,2013-09-09 23:22:00,
2013-09-09 19:52:00,59.0,46.0,30.09,West,270,1.0,2.0,62,-99.99,,,0.01,,2013-09-09 23:52:00,
2013-09-09 20:12:00,58.0,47.0,30.10,West,270,0.0,0.0,68,-99.99,,,0.01,,2013-09-10 00:12:00,
2013-09-09 20:22:00,56.0,47.0,30.10,West,270,0.0,0.0,72,0.00,,,-99.99,,2013-09-10 00:22:00,
2013-09-09 20:42:00,55.0,47.0,30.09,West,270,0.0,0.0,75,0.00,,,0.01,,2013-09-10 00:42:00,
2013-09-09 20:52:00,54.0,47.0,30.09,West,270,0.0,0.0,78,0.00,,,0.01,,2013-09-10 00:52:00,
2013-09-09 21:11:00,53.0,47.0,30.09,West,270,0.0,0.0,79,0.00,,,0.01,,2013-09-10 01:11:00,
2013-09-09 21:21:00,53.0,47.0,30.09,West,267,0.0,0.0,79,0.00,,,0.01,,2013-09-10 01:21:00,
2013-09-09 21:42:00,56.0,48.0,30.09,West,265,1.0,2.0,75,0.00,,,-99.99,,2013-09-10 01:42:00,
2013-09-09 21:53:00,56.0,48.0,30.08,WSW,246,2.0,3.0,74,0.00,,,0.01,,2013-09-10 01:53:00,
2013-09-09 22:12:00,57.0,48.0,30.08,West,267,3.0,5.0,73,0.00,,,0.01,,2013-09-10 02:12:00,
2013-09-09 22:42:00,58.0,49.0,30.07,WSW,243,0.0,1.0,72,0.00,,,0.01,,2013-09-10 02:42:00,
2013-09-09 22:52:00,57.0,48.0,30.07,SW,222,1.0,3.0,73,0.00,,,0.01,,2013-09-10 02:52:00,
2013-09-09 23:12:00,57.0,49.0,30.07,SW,232,1.0,2.0,75,0.00,,,0.01,,2013-09-10 03:12:00,
2013-09-09 23:22:00,57.0,50.0,30.07,WSW,248,0.0,3.0,76,0.00,,,0.01,,2013-09-10 03:22:00,
2013-09-09 23:54:00,56.0,50.0,30.07,SW,223,0.0,0.0,79,0.00,,,-99.99,,2013-09-10 03:54:00,